| time (UTC) | temp F | wind direction | speed knots | gust knots | rain 1hr in | rain 24hr in | rain mn in | humidity % | barometer mb |
| 20260505041757 | 72 | 186 | 2.6 | 5.2 | 0.00 | 0.00 | 0.00 | 74 | 1011.1 |
| 20260505041255 | 72 | 118 | 1.7 | 6.1 | 0.00 | 0.00 | 0.00 | 73 | 1011.0 |
| 20260505040752 | 72 | 222 | 2.6 | 3.5 | 0.00 | 0.00 | 0.00 | 73 | 1011.0 |
| 20260505040249 | 73 | 136 | 1.7 | 4.3 | 0.00 | 0.00 | 0.00 | 73 | 1011.4 |
| 20260505035746 | 73 | 120 | 0.0 | 3.5 | 0.00 | 0.00 | 0.00 | 72 | 1011.2 |
| 20260505035242 | 73 | 167 | 0.9 | 3.5 | 0.00 | 0.00 | 0.00 | 73 | 1011.4 |
| 20260505034739 | 73 | 148 | 1.7 | 5.2 | 0.00 | 0.00 | 0.00 | 73 | 1011.2 |
| 20260505034236 | 73 | 148 | 1.7 | 5.2 | 0.00 | 0.00 | 0.00 | 73 | 1011.2 |
| 20260505033732 | 73 | 96 | 0.0 | 4.3 | 0.00 | 0.00 | 0.00 | 73 | 1011.3 |
| 20260505033230 | 73 | 200 | 3.5 | 5.2 | 0.00 | 0.00 | 0.00 | 73 | 1011.7 |
| 20260505032728 | 73 | 201 | 4.3 | 5.2 | 0.00 | 0.00 | 0.00 | 73 | 1011.6 |
| 20260505032224 | 73 | 184 | 2.6 | 6.1 | 0.00 | 0.00 | 0.00 | 73 | 1011.6 |
| 20260505031721 | 73 | 173 | 1.7 | 5.2 | 0.00 | 0.00 | 0.00 | 73 | 1011.5 |
| 20260505031218 | 73 | 46 | 1.7 | 3.5 | 0.00 | 0.00 | 0.00 | 73 | 1011.5 |
| 20260505030715 | 73 | 114 | 1.7 | 3.5 | 0.00 | 0.00 | 0.00 | 72 | 1011.5 |
| 20260505030211 | 73 | 204 | 0.9 | 5.2 | 0.00 | 0.00 | 0.00 | 72 | 1011.5 |
| 20260505025707 | 73 | 3 | 0.0 | 3.5 | 0.00 | 0.00 | 0.00 | 72 | 1011.3 |
| 20260505025205 | 73 | 111 | 1.7 | 2.6 | 0.00 | 0.00 | 0.00 | 72 | 1011.3 |
| 20260505024703 | 73 | 15 | 2.6 | 7.8 | 0.00 | 0.00 | 0.00 | 71 | 1011.3 |
| 20260505024159 | 73 | 93 | 1.7 | 5.2 | 0.00 | 0.00 | 0.00 | 71 | 1011.1 |
| 20260505023657 | 73 | 134 | 2.6 | 4.3 | 0.00 | 0.00 | 0.00 | 71 | 1011.3 |
| 20260505023154 | 73 | 162 | 1.7 | 3.5 | 0.00 | 0.00 | 0.00 | 71 | 1011.2 |
| 20260505022652 | 73 | 119 | 3.5 | 3.5 | 0.00 | 0.00 | 0.00 | 71 | 1011.3 |
| 20260505022149 | 73 | 194 | 0.9 | 3.5 | 0.00 | 0.00 | 0.00 | 71 | 1011.4 |
| 20260505021645 | 73 | 182 | 1.7 | 4.3 | 0.00 | 0.00 | 0.00 | 71 | 1011.3 |
| 20260505021142 | 73 | 136 | 1.7 | 9.6 | 0.00 | 0.00 | 0.00 | 70 | 1011.3 |
| 20260505020637 | 73 | 119 | 0.9 | 3.5 | 0.00 | 0.00 | 0.00 | 70 | 1011.3 |
| 20260505020134 | 74 | 127 | 2.6 | 3.5 | 0.00 | 0.00 | 0.00 | 70 | 1010.9 |
| 20260505015631 | 74 | 121 | 1.7 | 3.5 | 0.00 | 0.00 | 0.00 | 70 | 1010.9 |
| 20260505015127 | 74 | 141 | 0.0 | 5.2 | 0.00 | 0.00 | 0.00 | 70 | 1011.1 |
| 20260505014624 | 74 | 128 | 7.0 | 8.7 | 0.00 | 0.00 | 0.00 | 70 | 1010.9 |
| 20260505014121 | 73 | 125 | 3.5 | 3.5 | 0.00 | 0.00 | 0.00 | 70 | 1010.9 |
| 20260505013619 | 73 | 109 | 1.7 | 3.5 | 0.00 | 0.00 | 0.00 | 70 | 1011.1 |
| 20260505013116 | 73 | 135 | 0.0 | 2.6 | 0.00 | 0.00 | 0.00 | 70 | 1010.8 |
| 20260505012614 | 73 | 68 | 0.0 | 2.6 | 0.00 | 0.00 | 0.00 | 70 | 1010.9 |
| 20260505012111 | 73 | 121 | 2.6 | 4.3 | 0.00 | 0.00 | 0.00 | 70 | 1010.9 |
| 20260505011606 | 74 | 119 | 2.6 | 5.2 | 0.00 | 0.00 | 0.00 | 69 | 1010.9 |
| 20260505011104 | 74 | 131 | 0.9 | 4.3 | 0.00 | 0.00 | 0.00 | 69 | 1010.9 |
| 20260505010604 | 74 | 144 | 0.9 | 3.5 | 0.00 | 0.00 | 0.00 | 68 | 1010.9 |
| 20260505005557 | 74 | 120 | 1.7 | 4.3 | 0.00 | 0.00 | 0.00 | 68 | 1010.8 |
| 20260505005055 | 74 | 124 | 0.9 | 7.8 | 0.00 | 0.00 | 0.00 | 67 | 1010.8 |
| 20260505004552 | 75 | 165 | 1.7 | 4.3 | 0.00 | 0.00 | 0.00 | 66 | 1010.6 |
| 20260505004049 | 75 | 125 | 3.5 | 4.3 | 0.00 | 0.00 | 0.00 | 66 | 1010.6 |
| 20260505003546 | 75 | 162 | 0.9 | 4.3 | 0.00 | 0.00 | 0.00 | 65 | 1010.5 |
| 20260505003043 | 76 | 111 | 2.6 | 7.8 | 0.00 | 0.00 | 0.00 | 65 | 1010.7 |
| 20260505002538 | 76 | 99 | 1.7 | 3.5 | 0.00 | 0.00 | 0.00 | 66 | 1010.7 |
| 20260505002037 | 76 | 95 | 0.9 | 6.1 | 0.00 | 0.00 | 0.00 | 65 | 1010.8 |
| 20260505001534 | 76 | 161 | 2.6 | 5.2 | 0.00 | 0.00 | 0.00 | 65 | 1010.6 |
| 20260505001031 | 76 | 122 | 1.7 | 4.3 | 0.00 | 0.00 | 0.00 | 64 | 1010.7 |
| 20260505000529 | 76 | 72 | 0.0 | 5.2 | 0.00 | 0.00 | 0.00 | 65 | 1010.7 |
| 20260505000026 | 76 | 133 | 3.5 | 6.1 | 0.00 | 0.00 | 0.00 | 64 | 1010.9 |
| 20260504235523 | 76 | 137 | 2.6 | 3.5 | 0.00 | 0.00 | 0.00 | 64 | 1010.8 |
| 20260504235019 | 76 | 107 | 2.6 | 4.3 | 0.00 | 0.00 | 0.00 | 64 | 1011.0 |
| 20260504234516 | 77 | 93 | 2.6 | 5.2 | 0.00 | 0.00 | 0.00 | 63 | 1010.7 |
| 20260504234013 | 77 | 131 | 5.2 | 7.0 | 0.00 | 0.00 | 0.00 | 62 | 1010.7 |
| 20260504233508 | 77 | 76 | 1.7 | 5.2 | 0.00 | 0.00 | 0.00 | 62 | 1010.9 |
| 20260504233006 | 78 | 151 | 5.2 | 5.2 | 0.00 | 0.00 | 0.00 | 61 | 1010.9 |
| 20260504232503 | 78 | 140 | 1.7 | 5.2 | 0.00 | 0.00 | 0.00 | 61 | 1011.1 |
| 20260504232000 | 78 | 89 | 5.2 | 7.8 | 0.00 | 0.00 | 0.00 | 60 | 1010.8 |
| 20260504231456 | 78 | 250 | 0.9 | 7.0 | 0.00 | 0.00 | 0.00 | 61 | 1011.0 |
| 20260504230953 | 78 | 155 | 5.2 | 7.0 | 0.00 | 0.00 | 0.00 | 59 | 1011.0 |
| 20260504230449 | 79 | 152 | 2.6 | 7.8 | 0.00 | 0.00 | 0.00 | 58 | 1011.4 |
| 20260504225948 | 79 | 102 | 2.6 | 4.3 | 0.00 | 0.00 | 0.00 | 58 | 1011.2 |
| 20260504225444 | 79 | 96 | 1.7 | 5.2 | 0.00 | 0.00 | 0.00 | 57 | 1011.1 |
| 20260504224942 | 80 | 129 | 1.7 | 9.6 | 0.00 | 0.00 | 0.00 | 55 | 1011.3 |
| 20260504224438 | 80 | 179 | 0.9 | 5.2 | 0.00 | 0.00 | 0.00 | 55 | 1011.1 |
| 20260504223936 | 80 | 136 | 2.6 | 5.2 | 0.00 | 0.00 | 0.00 | 54 | 1011.3 |
| 20260504223431 | 80 | 93 | 2.6 | 3.5 | 0.00 | 0.00 | 0.00 | 54 | 1011.4 |
| 20260504222927 | 80 | 129 | 0.9 | 4.3 | 0.00 | 0.00 | 0.00 | 53 | 1011.4 |
| 20260504222425 | 80 | 171 | 1.7 | 4.3 | 0.00 | 0.00 | 0.00 | 53 | 1011.6 |
| 20260504221923 | 80 | 129 | 2.6 | 4.3 | 0.00 | 0.00 | 0.00 | 54 | 1011.5 |
| 20260504221419 | 81 | 140 | 1.7 | 3.5 | 0.00 | 0.00 | 0.00 | 52 | 1011.5 |
| 20260504220916 | 81 | 21 | 0.9 | 4.3 | 0.00 | 0.00 | 0.00 | 52 | 1011.5 |
| 20260504220413 | 81 | 145 | 1.7 | 4.3 | 0.00 | 0.00 | 0.00 | 52 | 1011.4 |
| 20260504215910 | 81 | 104 | 2.6 | 5.2 | 0.00 | 0.00 | 0.00 | 51 | 1011.6 |
| 20260504215407 | 82 | 103 | 2.6 | 4.3 | 0.00 | 0.00 | 0.00 | 50 | 1011.6 |
| 20260504214903 | 82 | 223 | 0.0 | 4.3 | 0.00 | 0.00 | 0.00 | 48 | 1011.7 |
| 20260504214400 | 83 | 199 | 0.9 | 5.2 | 0.00 | 0.00 | 0.00 | 49 | 1011.9 |
| 20260504213856 | 82 | 175 | 1.7 | 2.6 | 0.00 | 0.00 | 0.00 | 48 | 1011.8 |
| 20260504213352 | 83 | 165 | 1.7 | 7.8 | 0.00 | 0.00 | 0.00 | 48 | 1011.7 |
| 20260504212850 | 84 | 174 | 0.0 | 6.1 | 0.00 | 0.00 | 0.00 | 48 | 1011.6 |
| 20260504212346 | 83 | 146 | 2.6 | 4.3 | 0.00 | 0.00 | 0.00 | 48 | 1011.9 |
| 20260504211844 | 83 | 294 | 1.7 | 3.5 | 0.00 | 0.00 | 0.00 | 48 | 1012.1 |
| 20260504211339 | 83 | 103 | 0.0 | 4.3 | 0.00 | 0.00 | 0.00 | 49 | 1012.1 |
| 20260504210837 | 83 | 187 | 0.9 | 4.3 | 0.00 | 0.00 | 0.00 | 49 | 1012.0 |
| 20260504210334 | 83 | 106 | 1.7 | 4.3 | 0.00 | 0.00 | 0.00 | 48 | 1012.2 |
| 20260504205831 | 84 | 107 | 0.9 | 4.3 | 0.00 | 0.00 | 0.00 | 50 | 1012.2 |
| 20260504205329 | 83 | 105 | 2.6 | 6.1 | 0.00 | 0.00 | 0.00 | 47 | 1012.4 |
| 20260504204827 | 83 | 202 | 0.9 | 3.5 | 0.00 | 0.00 | 0.00 | 49 | 1012.5 |
| 20260504204325 | 83 | 223 | 2.6 | 5.2 | 0.00 | 0.00 | 0.00 | 47 | 1012.7 |
| 20260504203824 | 82 | 77 | 2.6 | 3.5 | 0.00 | 0.00 | 0.00 | 47 | 1012.5 |
| 20260504203321 | 84 | 142 | 1.7 | 3.5 | 0.00 | 0.00 | 0.00 | 46 | 1012.6 |
| 20260504202816 | 84 | 208 | 0.9 | 3.5 | 0.00 | 0.00 | 0.00 | 46 | 1013.0 |
| 20260504202314 | 83 | 315 | 0.9 | 2.6 | 0.00 | 0.00 | 0.00 | 48 | 1012.9 |
| 20260504201810 | 82 | 167 | 3.5 | 3.5 | 0.00 | 0.00 | 0.00 | 49 | 1013.0 |
| 20260504201308 | 82 | 98 | 0.9 | 4.3 | 0.00 | 0.00 | 0.00 | 48 | 1013.1 |
| 20260504200805 | 83 | 295 | 0.9 | 5.2 | 0.00 | 0.00 | 0.00 | 47 | 1013.3 |
| 20260504200301 | 83 | 282 | 1.7 | 7.0 | 0.00 | 0.00 | 0.00 | 46 | 1013.2 |
| 20260504195757 | 82 | 128 | 1.7 | 5.2 | 0.00 | 0.00 | 0.00 | 49 | 1013.4 |
| 20260504195253 | 83 | 206 | 2.6 | 4.3 | 0.00 | 0.00 | 0.00 | 45 | 1013.6 |
| 20260504194750 | 83 | 58 | 0.0 | 4.3 | 0.00 | 0.00 | 0.00 | 47 | 1013.5 |
| 20260504194247 | 82 | 184 | 0.9 | 3.5 | 0.00 | 0.00 | 0.00 | 50 | 1013.7 |
| 20260504193743 | 82 | 106 | 0.9 | 6.1 | 0.00 | 0.00 | 0.00 | 49 | 1013.7 |
| 20260504193241 | 82 | 171 | 1.7 | 3.5 | 0.00 | 0.00 | 0.00 | 47 | 1013.6 |
| 20260504192739 | 83 | 356 | 0.9 | 1.7 | 0.00 | 0.00 | 0.00 | 47 | 1013.9 |
| 20260504192237 | 82 | 83 | 0.9 | 2.6 | 0.00 | 0.00 | 0.00 | 49 | 1013.7 |
| 20260504191735 | 82 | 50 | 0.9 | 8.7 | 0.00 | 0.00 | 0.00 | 49 | 1013.7 |
| 20260504191232 | 82 | 108 | 0.0 | 5.2 | 0.00 | 0.00 | 0.00 | 48 | 1014.0 |
| 20260504190727 | 82 | 284 | 2.6 | 3.5 | 0.00 | 0.00 | 0.00 | 49 | 1014.1 |
| 20260504190224 | 82 | 190 | 0.0 | 2.6 | 0.00 | 0.00 | 0.00 | 48 | 1014.0 |
| 20260504185720 | 82 | 294 | 0.0 | 5.2 | 0.00 | 0.00 | 0.00 | 47 | 1014.3 |
| 20260504185217 | 83 | 210 | 4.3 | 4.3 | 0.00 | 0.00 | 0.00 | 46 | 1014.3 |
| 20260504184713 | 83 | 205 | 3.5 | 3.5 | 0.00 | 0.00 | 0.00 | 44 | 1014.2 |
| 20260504184209 | 82 | 152 | 0.9 | 4.3 | 0.00 | 0.00 | 0.00 | 50 | 1014.6 |
| 20260504183705 | 81 | 122 | 3.5 | 5.2 | 0.00 | 0.00 | 0.00 | 48 | 1014.4 |
| 20260504183202 | 81 | 113 | 5.2 | 5.2 | 0.00 | 0.00 | 0.00 | 49 | 1014.4 |
| 20260504182700 | 81 | 95 | 2.6 | 4.3 | 0.00 | 0.00 | 0.00 | 50 | 1014.4 |
| 20260504182157 | 80 | 107 | 0.9 | 3.5 | 0.00 | 0.00 | 0.00 | 50 | 1014.7 |
| 20260504181655 | 80 | 108 | 3.5 | 4.3 | 0.00 | 0.00 | 0.00 | 50 | 1014.6 |
| 20260504181152 | 80 | 98 | 0.9 | 4.3 | 0.00 | 0.00 | 0.00 | 49 | 1014.7 |
| 20260504180651 | 81 | 230 | 1.7 | 4.3 | 0.00 | 0.00 | 0.00 | 47 | 1014.8 |
| 20260504180149 | 80 | 126 | 4.3 | 4.3 | 0.00 | 0.00 | 0.00 | 48 | 1015.0 |
| 20260504175646 | 81 | 208 | 2.6 | 5.2 | 0.00 | 0.00 | 0.00 | 46 | 1015.0 |
| 20260504175143 | 80 | 125 | 1.7 | 3.5 | 0.00 | 0.00 | 0.00 | 50 | 1014.9 |
| 20260504174641 | 80 | 191 | 1.7 | 4.3 | 0.00 | 0.00 | 0.00 | 49 | 1014.9 |
| 20260504174137 | 80 | 228 | 2.6 | 5.2 | 0.00 | 0.00 | 0.00 | 50 | 1014.9 |
| 20260504173635 | 80 | 93 | 0.0 | 5.2 | 0.00 | 0.00 | 0.00 | 47 | 1015.1 |
| 20260504173132 | 80 | 305 | 2.6 | 3.5 | 0.00 | 0.00 | 0.00 | 48 | 1015.3 |
| 20260504172629 | 79 | 232 | 0.0 | 4.3 | 0.00 | 0.00 | 0.00 | 51 | 1015.1 |
| 20260504172125 | 79 | 254 | 6.1 | 10.4 | 0.00 | 0.00 | 0.00 | 49 | 1015.4 |
| 20260504171621 | 78 | 99 | 2.6 | 5.2 | 0.00 | 0.00 | 0.00 | 51 | 1015.5 |
| 20260504171119 | 78 | 213 | 0.0 | 3.5 | 0.00 | 0.00 | 0.00 | 52 | 1015.5 |
| 20260504170615 | 79 | 106 | 1.7 | 5.2 | 0.00 | 0.00 | 0.00 | 50 | 1015.7 |
| 20260504170113 | 79 | 292 | 2.6 | 5.2 | 0.00 | 0.00 | 0.00 | 50 | 1015.8 |
| 20260504150958 | 75 | 207 | 1.7 | 8.7 | 0.00 | 0.00 | 0.00 | 55 | 1016.8 |
| 20260504150455 | 75 | 107 | 0.9 | 4.3 | 0.00 | 0.00 | 0.00 | 56 | 1016.6 |
| 20260504140922 | 72 | 109 | 1.7 | 4.3 | 0.00 | 0.00 | 0.00 | 57 | 1016.5 |
| 20260504140418 | 72 | 112 | 0.9 | 4.3 | 0.00 | 0.00 | 0.00 | 59 | 1016.3 |
| 20260504130343 | 72 | 106 | 1.7 | 1.7 | 0.00 | 0.00 | 0.00 | 59 | 1016.5 |
| 20260504120306 | 55 | 98 | 1.7 | 1.7 | 0.00 | 0.00 | 0.00 | 95 | 1016.3 |
| 20260504110230 | 54 | 89 | 0.9 | 1.7 | 0.00 | 0.00 | 0.00 | 94 | 1016.2 |
| 20260504100154 | 54 | 83 | 0.9 | 1.7 | 0.00 | 0.00 | 0.00 | 92 | 1016.3 |
| 20260504090116 | 55 | 92 | 1.7 | 1.7 | 0.00 | 0.00 | 0.00 | 88 | 1016.7 |
| 20260504081547 | 56 | 78 | 0.0 | 0.9 | 0.00 | 0.00 | 0.00 | 85 | 1016.8 |
| 20260504081042 | 56 | 96 | 0.9 | 1.7 | 0.00 | 0.00 | 0.00 | 86 | 1016.9 |
| 20260504080539 | 56 | 101 | 1.7 | 1.7 | 0.00 | 0.00 | 0.00 | 85 | 1017.0 |
| 20260504050352 | 61 | 100 | 0.9 | 1.7 | 0.00 | 0.00 | 0.00 | 69 | 1018.8 |